Wind_Speed
17 19 19 18 16 14 13 14 9 10 7 5 5 5 5 6 7 7 8 9 11 13 14 15 14 14 12 12 13 15 14 13 12 12 10 8 5 4 3 3 3 2 3
16 18 18 17 14 12 11 11 10 7 4 3 2 0 4 5 6 7 11 10 11 9 13 16 14 13 10 9 11 13 14 14 13 13 8 6 5 4 3 3 3 3 5
14 16 18 17 14 11 9 10 13 9 5 3 3 3 3 4 4 6 10 13 15 11 9 11 13 13 10 9 10 11 13 14 14 13 8 7 6 5 5 4 3 4 4
12 15 16 16 13 11 10 9 9 11 8 5 2 1 1 1 2 4 4 6 10 12 11 9 11 13 11 8 8 8 11 15 14 14 11 8 7 6 7 6 6 5 4
12 13 16 17 12 11 12 11 9 9 11 5 4 2 2 1 2 4 5 5 6 8 11 7 9 11 12 9 7 7 8 11 12 14 13 9 6 6 6 6 6 6 5
14 13 15 14 16 11 10 10 8 9 7 8 6 6 9 5 5 5 3 5 5 7 7 7 8 9 11 9 8 8 9 10 10 12 12 11 8 6 4 4 3 4 6
16 14 16 16 13 17 13 15 12 6 4 6 6 6 5 3 2 4 5 6 5 5 9 7 8 8 11 8 6 5 8 9 9 10 10 10 9 7 4 3 4 4 4
16 15 14 15 14 12 13 16 13 14 11 8 5 5 6 4 4 6 6 5 9 4 8 9 8 8 8 12 11 8 6 6 7 7 8 7 7 6 6 4 3 2 3
16 17 15 12 13 18 15 14 14 16 17 11 10 10 11 10 10 11 7 6 5 3 5 6 7 8 8 9 13 11 7 4 4 5 7 7 7 5 4 5 5 5 4
17 16 16 15 13 13 17 18 17 16 17 17 13 12 9 10 12 11 10 9 8 6 8 5 10 7 8 9 10 14 10 6 5 5 7 8 7 6 6 6 6 6 6
18 19 19 18 15 15 16 16 17 19 18 18 19 16 13 10 10 9 10 12 11 11 11 11 12 8 8 9 9 12 8 8 9 8 9 8 8 9 8 8 8 7 7
19 20 20 19 18 17 18 18 17 18 22 22 21 20 19 17 14 14 13 14 14 12 12 12 10 11 12 12 10 11 4 4 7 9 11 11 9 8 8 8 8 8 8
19 18 16 15 14 14 15 18 19 19 19 22 23 23 23 23 22 20 19 17 16 14 12 11 8 10 11 10 12 7 5 6 5 7 10 11 10 10 9 8 7 6 7
15 14 13 13 14 14 14 15 17 18 20 21 23 22 23 24 24 24 23 21 17 15 12 12 9 9 10 11 9 9 11 8 7 8 9 10 9 8 10 10 8 7 8
17 16 17 17 15 17 17 17 15 16 18 21 22 21 20 21 22 23 22 20 20 16 13 11 13 11 10 10 10 14 12 10 8 8 11 12 11 10 10 9 8 9 9
17 17 18 20 20 19 18 20 19 18 18 19 21 22 21 21 21 20 21 21 21 20 18 14 14 15 15 13 13 13 12 10 9 11 13 12 13 11 11 12 12 11 10
16 19 20 22 23 21 20 21 20 21 22 21 21 22 21 22 23 22 22 21 20 20 19 17 18 18 17 17 15 14 13 13 14 14 15 13 14 13 14 14 14 12 12
16 19 22 24 25 25 25 25 26 26 27 24 23 24 22 22 24 24 24 24 22 22 22 21 18 18 19 17 16 15 13 10 15 16 18 16 17 16 16 16 16 15 16
17 20 22 23 25 25 27 28 28 28 28 28 26 26 25 24 24 25 26 27 25 24 25 24 21 21 21 19 18 17 17 19 20 20 22 19 18 18 19 17 17 18 18
21 21 21 24 28 29 29 29 31 31 29 30 31 30 28 26 26 25 27 26 26 26 26 26 23 22 22 21 19 19 20 21 22 23 23 21 20 21 21 19 20 14 18
21 23 25 24 24 34 33 33 32 33 33 32 33 33 32 30 27 27 28 28 28 29 27 27 27 25 24 24 21 20 20 22 23 23 23 21 21 22 22 21 16 14 18
17 20 22 22 25 29 40 39 37 42 40 36 37 35 33 33 32 31 32 32 31 31 30 30 29 28 25 27 25 23 23 24 24 24 24 23 23 23 23 21 14 14 17
20 21 22 25 27 30 27 32 40 34 44 43 42 41 40 37 35 34 34 35 37 35 34 33 33 30 29 27 29 29 27 27 26 25 26 25 25 25 22 20 13 15 19
26 27 29 32 32 30 33 34 36 37 39 40 41 47 45 44 40 38 39 38 39 39 38 38 37 33 33 31 32 31 30 29 29 29 27 27 27 26 23 21 15 18 17
29 32 35 37 39 35 35 37 40 41 42 42 40 41 44 46 42 42 41 41 41 41 39 38 39 38 37 35 35 34 34 32 31 30 29 28 28 27 24 22 17 17 13
32 34 36 38 40 40 41 43 45 46 47 48 46 44 43 45 41 41 42 42 44 45 42 40 36 36 38 39 40 38 35 34 33 33 32 29 30 25 30 30 16 11 12
Wind_Direction
177 174 172 168 170 161 159 162 152 168 162 139 103 82 64 52 42 51 41 28 17 11 9 9 9 10 13 18 21 19 18 13 7 4 3 5 348 356 11 29 38 11 347
181 182 182 181 182 178 171 186 178 167 179 185 148 252 57 59 43 33 39 51 41 21 15 7 6 5 7 18 18 21 19 17 14 10 7 8 16 20 26 43 64 57 34
186 187 188 187 187 184 187 191 202 195 209 187 180 195 66 66 14 25 66 47 29 31 30 34 18 15 24 28 27 35 27 22 20 19 29 44 44 37 22 38 65 66 69
196 197 193 189 189 197 200 195 189 197 217 207 189 210 110 85 27 24 355 3 18 30 29 13 32 32 22 26 44 52 26 15 18 26 34 42 57 59 54 46 42 41 44
202 206 193 192 197 209 216 226 205 209 221 218 247 258 256 242 336 343 331 325 353 354 341 14 52 29 29 34 33 25 15 11 20 30 34 40 56 67 61 55 45 31 29
203 209 203 192 213 207 220 217 238 209 220 232 247 273 296 305 350 22 348 342 351 4 4 38 28 36 36 34 29 22 16 22 23 35 39 39 43 44 44 45 49 50 41
208 207 209 216 227 223 232 222 244 244 254 235 231 281 357 328 2 40 9 3 353 340 333 356 359 26 30 17 27 24 18 17 14 22 31 38 38 48 42 26 14 5 3
215 210 223 218 219 222 232 229 245 261 257 250 245 259 301 297 318 335 349 352 0 15 1 351 6 10 3 27 26 30 19 20 20 10 5 21 31 22 22 14 359 351 347
227 230 230 235 236 233 232 234 251 260 264 250 263 273 285 279 295 305 306 302 335 346 355 345 352 355 356 358 1 357 350 11 27 357 349 352 355 358 354 344 334 325 320
242 245 244 242 228 233 237 248 255 263 259 258 262 273 276 267 286 286 288 297 298 291 324 314 324 311 341 331 353 4 3 5 32 23 4 352 345 339 336 330 322 312 311
243 243 247 250 244 241 242 248 248 255 252 258 268 270 274 260 272 283 287 295 302 295 294 304 318 291 323 338 339 353 349 357 353 359 354 341 334 332 330 332 331 322 311
247 243 242 244 246 245 249 254 253 259 247 252 265 262 267 269 267 271 277 285 290 288 284 295 297 280 299 320 314 330 321 331 334 337 347 348 338 334 329 324 320 315 317
246 243 247 247 240 243 253 261 261 258 256 252 254 259 262 266 270 270 274 281 284 294 284 294 294 300 292 297 309 322 316 309 307 323 335 342 338 342 341 330 324 313 304
227 237 231 239 252 256 256 257 263 264 258 256 256 260 262 264 267 270 269 274 281 290 291 296 295 300 306 310 317 315 314 300 299 298 325 332 324 329 332 326 324 323 313
226 226 238 245 251 255 259 256 258 262 263 260 259 262 265 267 264 267 268 270 274 278 275 283 298 303 309 308 308 316 297 295 287 309 322 318 315 318 328 322 316 312 308
231 239 244 247 248 253 257 255 255 258 264 266 263 263 266 269 270 268 271 271 268 270 271 273 281 283 286 285 300 304 298 294 283 302 306 315 309 312 315 319 316 312 308
240 244 246 248 249 248 248 251 256 254 253 255 265 264 263 264 268 271 270 274 274 269 268 273 276 278 276 275 280 284 291 286 279 280 298 302 302 303 303 308 311 306 305
243 247 250 251 251 249 247 250 254 256 255 253 254 259 257 258 259 261 266 270 273 272 269 269 270 272 274 278 282 277 271 258 276 289 293 295 299 301 302 304 309 308 311
245 248 256 261 263 262 258 258 256 253 251 247 247 255 257 256 254 254 256 261 264 266 268 267 267 263 267 271 273 270 262 259 265 279 284 289 296 298 301 302 303 306 306
259 265 268 271 266 264 260 259 259 257 254 254 253 250 252 256 259 256 257 257 258 261 266 267 264 259 260 266 272 272 267 262 266 270 278 285 294 298 299 304 308 304 318
275 265 272 274 285 253 261 260 258 257 255 255 254 253 252 249 248 251 253 255 258 260 261 263 261 259 259 262 268 264 267 256 267 271 278 284 289 292 295 305 303 302 303
272 272 273 273 275 277 263 253 264 260 254 256 256 250 249 251 251 248 249 251 251 255 256 258 260 260 258 262 263 266 263 262 266 267 272 279 283 286 286 296 307 307 318
275 276 275 276 274 273 272 261 266 272 252 252 256 255 253 251 251 254 254 255 252 252 255 257 257 259 259 263 262 260 259 263 264 263 269 274 277 280 285 293 289 294 293
276 279 283 283 282 274 267 266 264 267 269 256 262 249 255 252 250 256 256 256 257 257 257 260 260 257 258 260 261 261 261 260 262 261 268 272 274 274 281 259 275 278 285
278 283 287 290 290 286 276 266 262 260 259 257 255 256 256 252 254 254 254 256 258 258 259 261 261 262 260 261 261 261 261 261 262 261 263 265 266 271 251 255 263 274 280
283 288 293 294 293 290 285 280 274 268 260 257 254 252 247 252 254 253 257 261 259 257 259 262 261 261 262 261 260 259 260 259 257 256 259 260 263 259 251 246 245 257 284
Height
3215 3217 3219 3220 3222 3224 3226 3227 3227 3227 3227 3228 3229 3229 3229 3228 3227 3226 3224 3224 3221 3218 3216 3215 3213 3212 3212 3211 3211 3210 3209 3207 3206 3205 3203 3204 3205 3204 3204 3204 3204 3205 3204
3216 3218 3220 3222 3223 3225 3226 3228 3229 3229 3229 3229 3230 3230 3230 3229 3228 3227 3225 3224 3223 3222 3220 3218 3216 3215 3213 3212 3211 3211 3211 3209 3207 3204 3203 3204 3204 3203 3203 3204 3204 3204 3204
3217 3219 3222 3223 3225 3226 3226 3228 3229 3230 3231 3231 3231 3231 3231 3230 3229 3229 3227 3225 3223 3222 3221 3219 3217 3214 3213 3213 3212 3212 3212 3210 3208 3206 3203 3204 3204 3204 3205 3204 3204 3203 3203
3218 3220 3222 3224 3226 3226 3227 3228 3229 3231 3231 3232 3232 3232 3231 3230 3229 3228 3227 3226 3224 3222 3222 3221 3217 3215 3214 3213 3212 3212 3212 3211 3209 3206 3204 3203 3204 3204 3205 3205 3205 3205 3204
3218 3220 3222 3225 3226 3227 3228 3229 3230 3231 3231 3231 3231 3232 3231 3230 3229 3228 3227 3226 3225 3223 3221 3221 3219 3217 3215 3214 3213 3213 3212 3211 3210 3207 3205 3204 3205 3205 3205 3206 3206 3206 3206
3217 3220 3223 3224 3226 3227 3228 3229 3230 3230 3231 3230 3231 3231 3231 3230 3229 3228 3227 3225 3224 3223 3223 3221 3221 3220 3218 3216 3214 3213 3212 3211 3210 3208 3207 3206 3206 3206 3206 3206 3206 3206 3205
3217 3218 3222 3224 3225 3226 3227 3228 3229 3229 3230 3230 3231 3231 3230 3230 3229 3228 3227 3226 3225 3224 3223 3223 3222 3221 3220 3218 3216 3214 3212 3210 3210 3209 3208 3207 3206 3205 3205 3205 3205 3205 3205
3217 3218 3221 3223 3224 3225 3227 3227 3228 3229 3229 3230 3230 3230 3231 3231 3230 3229 3228 3227 3226 3225 3225 3224 3223 3222 3221 3219 3217 3216 3213 3211 3211 3210 3208 3207 3206 3205 3205 3205 3205 3205 3205
3216 3218 3220 3221 3222 3223 3226 3227 3227 3228 3229 3229 3229 3230 3229 3230 3230 3229 3228 3228 3228 3228 3227 3226 3224 3223 3222 3220 3218 3215 3213 3211 3210 3210 3209 3207 3206 3205 3204 3204 3204 3204 3204
3214 3216 3218 3220 3221 3222 3224 3225 3225 3226 3227 3228 3228 3227 3227 3228 3229 3228 3227 3226 3227 3227 3226 3226 3225 3223 3221 3220 3218 3216 3214 3212 3210 3210 3209 3208 3207 3206 3205 3204 3204 3203 3203
3212 3214 3216 3218 3220 3220 3221 3222 3223 3223 3224 3226 3225 3225 3226 3226 3226 3226 3226 3225 3226 3226 3225 3225 3224 3222 3221 3220 3218 3216 3215 3214 3212 3211 3209 3208 3207 3206 3205 3204 3203 3203 3202
3210 3212 3214 3216 3217 3218 3219 3220 3220 3221 3221 3222 3223 3223 3223 3224 3224 3224 3224 3224 3224 3224 3224 3222 3222 3221 3221 3219 3217 3216 3214 3213 3212 3211 3209 3208 3207 3206 3205 3203 3202 3202 3201
3208 3211 3212 3214 3214 3215 3215 3216 3217 3218 3218 3218 3219 3219 3220 3220 3221 3221 3221 3221 3221 3221 3221 3220 3219 3218 3218 3217 3216 3214 3213 3212 3211 3210 3209 3207 3206 3205 3203 3202 3201 3200 3200
3206 3207 3208 3209 3210 3211 3212 3212 3213 3214 3215 3215 3215 3215 3216 3217 3216 3217 3217 3217 3218 3217 3218 3218 3217 3216 3216 3214 3213 3213 3212 3211 3209 3209 3208 3207 3205 3204 3202 3201 3200 3199 3198
3202 3203 3204 3205 3207 3208 3208 3209 3209 3210 3210 3212 3212 3212 3212 3213 3212 3213 3213 3213 3213 3213 3214 3215 3214 3214 3214 3213 3212 3211 3209 3209 3208 3207 3207 3205 3204 3203 3201 3200 3198 3197 3196
3198 3200 3201 3201 3202 3204 3204 3204 3205 3206 3207 3208 3208 3208 3209 3210 3209 3209 3209 3209 3208 3208 3209 3211 3212 3211 3211 3210 3209 3208 3207 3206 3205 3205 3204 3203 3202 3200 3199 3198 3196 3195 3194
3194 3195 3196 3196 3197 3198 3199 3199 3200 3202 3202 3203 3203 3203 3204 3204 3205 3205 3205 3206 3205 3205 3205 3207 3207 3208 3206 3206 3205 3206 3205 3204 3203 3202 3200 3200 3199 3197 3196 3195 3193 3191 3190
3189 3190 3190 3190 3191 3191 3192 3193 3194 3195 3196 3197 3198 3197 3197 3198 3199 3200 3201 3202 3202 3201 3201 3202 3203 3202 3202 3202 3201 3201 3201 3200 3199 3198 3197 3196 3195 3193 3192 3191 3189 3188 3187
3184 3185 3186 3186 3187 3188 3188 3188 3188 3188 3188 3189 3190 3191 3192 3192 3192 3193 3194 3194 3196 3196 3195 3195 3197 3197 3197 3197 3196 3195 3196 3195 3195 3194 3194 3192 3191 3189 3188 3187 3185 3184 3182
3179 3180 3182 3182 3181 3182 3182 3182 3182 3181 3182 3183 3185 3184 3185 3185 3187 3188 3188 3189 3189 3189 3189 3189 3190 3191 3191 3192 3192 3191 3190 3190 3190 3189 3189 3188 3186 3185 3183 3182 3181 3180 3179
3175 3175 3174 3174 3171 3172 3173 3174 3173 3173 3173 3174 3176 3178 3178 3178 3178 3180 3181 3182 3182 3182 3183 3183 3184 3185 3185 3186 3186 3186 3184 3184 3184 3185 3184 3182 3181 3180 3178 3177 3176 3176 3175
3168 3169 3169 3167 3166 3165 3163 3163 3165 3164 3164 3165 3166 3169 3170 3170 3171 3171 3173 3174 3175 3175 3176 3177 3179 3179 3180 3180 3180 3180 3180 3179 3179 3179 3178 3177 3175 3174 3174 3173 3173 3173 3171
3163 3163 3163 3162 3161 3160 3157 3156 3154 3150 3152 3155 3157 3159 3161 3162 3163 3164 3166 3166 3167 3168 3169 3170 3170 3173 3173 3174 3174 3172 3173 3173 3173 3172 3171 3170 3169 3169 3168 3168 3168 3168 3166
3158 3157 3157 3155 3154 3153 3150 3148 3145 3142 3141 3142 3143 3146 3148 3152 3154 3156 3157 3157 3158 3160 3162 3163 3163 3164 3165 3165 3165 3166 3166 3165 3165 3165 3164 3163 3162 3162 3163 3163 3162 3163 3162
3152 3150 3147 3144 3141 3141 3139 3137 3134 3132 3132 3132 3134 3136 3137 3139 3144 3145 3145 3147 3148 3150 3153 3154 3155 3156 3157 3156 3157 3156 3157 3157 3157 3157 3157 3157 3156 3156 3157 3155 3156 3158 3158
3146 3143 3139 3135 3131 3128 3125 3122 3120 3118 3118 3119 3121 3123 3126 3129 3132 3134 3134 3136 3136 3141 3144 3145 3147 3146 3147 3147 3147 3147 3148 3147 3148 3148 3148 3149 3148 3149 3147 3147 3149 3151 3153